Skip Page Navigation
NASA JPL Caltech
NASA Logo - Jet Propulsion Laboratory + View the NASA Portal
+ Center for Near-Earth Object Studies
JPL Home Earth Solar System Stars & Galaxies Technology
JPL Solar System Dynamics
BODIES ORBITS EPHEMERIDES TOOLS PHYSICAL DATA DISCOVERY FAQ SITE MAP
JPL Small-Body Database Browser
Search: [ help ]  
192015 (2005 YU70)
Classification: Main-belt Asteroid          SPK-ID: 2192015
Ephemeris | Orbit Diagram | Orbital Elements | Mission Design | Physical Parameters | Discovery Circumstances ]

[ show orbit diagram ]
Orbital Elements at Epoch 2459200.5 (2020-Dec-17.0) TDB
Reference: JPL 13 (heliocentric ecliptic J2000)
 Element Value Uncertainty (1-sigma)   Units 
e .1117330893786619 4.9271e-08  
a 2.54374628932031 1.8207e-08 au
q 2.259525657819044 1.2006e-07 au
i 2.241012700436152 7.6414e-06 deg
node 313.6857897724232 0.00010453 deg
peri 303.345086886502 0.00011031 deg
M 75.96556468256313 3.3133e-05 deg
tp 2458887.803236538454
(2020-Feb-08.30323654)
0.00013649 TDB
period 1481.866623601834
4.06
1.591e-05
4.356e-08
d
yr
n .2429368434825678 2.6082e-09 deg/d
Q 2.827966920821576 2.0241e-08 au
  Orbit Determination Parameters
   # obs. used (total)      249  
   data-arc span      6418 days (17.57 yr)  
   first obs. used      2003-03-26  
   last obs. used      2020-10-20  
   planetary ephem.      DE441  
   SB-pert. ephem.      SB441-N16  
   condition code      0  
   norm. resid. RMS      .60968  
   source      ORB  
   producer      Otto Matic  
   solution date      2021-Apr-13 22:14:19  

Additional Information
 Earth MOID = 1.24376 au 
 Jupiter MOID = 2.21925 au 
 T_jup = 3.434 
[ hide covariance matrix ]
Orbital Elements at Epoch 2457753.5 (2016-Dec-31.0) TDB
Reference: JPL 13 (heliocentric ecliptic J2000)
 Element Value Uncertainty (1-sigma)   Units 
e .1107321639349388 4.9446e-08  
q 2.262643259277607 1.2039e-07 au
tp 2457406.305702095762
(2016-Jan-18.80570210)
0.00013902 TDB
node 313.7326019466521 0.00010462 deg
peri 303.5651881206706 0.00011045 deg
i 2.239874108273223 7.637e-06 deg
  Orbit Determination Parameters
   # obs. used (total)      249  
   data-arc span      6418 days (17.57 yr)  
   first obs. used      2003-03-26  
   last obs. used      2020-10-20  
   planetary ephem.      DE441  
   SB-pert. ephem.      SB441-N16  
   condition code      0  
   norm. resid. RMS      .60968  
   source      ORB  
   producer      Otto Matic  
   solution date      2021-Apr-13 22:14:19  

Additional Information
 Jupiter MOID = 2.21925 au 
 T_jup = 3.434 
Orbit Covariance (6×6)
  e q tp node peri i
e 2.444952244607555E-15 -5.907111831769236E-15 2.497917216228443E-12 2.075496454552091E-15 5.841208124210254E-13 1.449202319684898E-15
q -5.907111831769236E-15 1.44936794318728E-14 -6.714900140386139E-12 -5.336533921816919E-15 -1.572649271343445E-12 -3.605662474660338E-15
tp 2.497917216228443E-12 -6.714900140386139E-12 1.932675254390728E-8 -3.501812819074023E-11 4.9297687200999E-9 2.782819882099908E-12
node 2.075496454552091E-15 -5.336533921816919E-15 -3.501812819074023E-11 1.094473882072231E-8 -1.094500753956573E-8 9.493056253075286E-11
peri 5.841208124210254E-13 -1.572649271343445E-12 4.9297687200999E-9 -1.094500753956573E-8 1.219997175149624E-8 -9.419767383271254E-11
i 1.449202319684898E-15 -3.605662474660338E-15 2.782819882099908E-12 9.493056253075286E-11 -9.419767383271254E-11 5.832311152547428E-11

Ephemeris | Orbit Diagram | Orbital Elements | Mission Design | Physical Parameters | Discovery Circumstances ]

Physical Parameter Table
Parameter Symbol Value Units Sigma Reference Notes
absolute magnitude H 16.94   n/a E2021B55  

192015 (2005 YU70)          Discovered 2005-Dec-27 by Mt. Lemmon Survey at Mount Lemmon
Reference: 20080917/Numbers.arcLast Updated: 2008-09-19
Ephemeris | Orbit Diagram | Orbital Elements | Mission Design | Physical Parameters | Discovery Circumstances ]
ABOUT SSD CREDITS/AWARDS PRIVACY/COPYRIGHT GLOSSARY LINKS
FirstGov 2021-Jun-20 16:32 UT
(server date/time)  
NASA Home Page
Site Manager:   Ryan S. Park
Webmaster  Alan B. Chamberlin